| time (UTC) | temp F | wind direction | speed MPH | gust MPH | rain 1hr in | rain 24hr in | rain mn in | humidity % | barometer mb |
| 20260904224535 | 59 | 259 | 6.0 | 8.0 | 0.00 | 0.12 | 0.00 | 87 | |
| 20260904223518 | 59 | 271 | 6.0 | 10.0 | 0.00 | 0.12 | 0.00 | 87 | |
| 20260904222527 | 59 | 273 | 5.0 | 7.0 | 0.00 | 0.12 | 0.00 | 86 | |
| 20260904221540 | 59 | 280 | 5.0 | 6.0 | 0.00 | 0.12 | 0.00 | 85 | |
| 20260904220525 | 60 | 266 | 6.0 | 8.0 | 0.00 | 0.12 | 0.00 | 85 | |
| 20260904215558 | 60 | 281 | 5.0 | 7.0 | 0.00 | 0.12 | 0.02 | 84 | |
| 20260904214522 | 61 | 285 | 5.0 | 6.0 | 0.00 | 0.12 | 0.02 | 83 | |
| 20260904213554 | 62 | 286 | 5.0 | 7.0 | 0.00 | 0.12 | 0.02 | 82 | |
| 20260904212546 | 62 | 302 | 5.0 | 8.0 | 0.00 | 0.12 | 0.02 | 81 | |
| 20260904211547 | 63 | 288 | 5.0 | 8.0 | 0.00 | 0.12 | 0.02 | 81 | |
| 20260904210538 | 63 | 292 | 6.0 | 8.0 | 0.00 | 0.12 | 0.02 | 80 | |
| 20260904205523 | 64 | 291 | 6.0 | 8.0 | 0.00 | 0.12 | 0.02 | 80 | |
| 20260904204557 | 64 | 279 | 6.0 | 9.0 | 0.00 | 0.12 | 0.02 | 80 | |
| 20260904203519 | 64 | 273 | 7.0 | 9.0 | 0.00 | 0.12 | 0.02 | 80 | |
| 20260904202532 | 64 | 288 | 6.0 | 9.0 | 0.00 | 0.12 | 0.02 | 80 | |
| 20260904201537 | 64 | 283 | 8.0 | 10.0 | 0.00 | 0.12 | 0.02 | 80 | |
| 20260904200527 | 65 | 284 | 6.0 | 10.0 | 0.00 | 0.12 | 0.02 | 79 | |
| 20260904195600 | 65 | 275 | 8.0 | 10.0 | 0.00 | 0.12 | 0.02 | 79 | |
| 20260904194523 | 65 | 296 | 6.0 | 9.0 | 0.00 | 0.12 | 0.02 | 80 | |
| 20260904193558 | 65 | 284 | 7.0 | 11.0 | 0.00 | 0.12 | 0.02 | 80 | |
| 20260904192521 | 65 | 271 | 6.0 | 8.0 | 0.00 | 0.12 | 0.02 | 81 | |
| 20260904191534 | 66 | 301 | 7.0 | 10.0 | 0.00 | 0.12 | 0.02 | 83 | |
| 20260904190537 | 66 | 303 | 7.0 | 9.0 | 0.00 | 0.12 | 0.02 | 85 | |
| 20260904185546 | 67 | 300 | 8.0 | 11.0 | 0.00 | 0.12 | 0.02 | 84 | |
| 20260904184531 | 67 | 293 | 9.0 | 13.0 | 0.00 | 0.12 | 0.02 | 84 | |
| 20260904183545 | 67 | 303 | 10.0 | 15.0 | 0.00 | 0.12 | 0.02 | 84 | |
| 20260904182528 | 67 | 273 | 10.0 | 15.0 | 0.00 | 0.12 | 0.02 | 84 | |
| 20260904181541 | 67 | 295 | 8.0 | 14.0 | 0.00 | 0.12 | 0.02 | 84 | |
| 20260904180526 | 68 | 282 | 11.0 | 16.0 | 0.00 | 0.12 | 0.02 | 84 | |
| 20260904175529 | 68 | 286 | 13.0 | 24.0 | 0.00 | 0.12 | 0.02 | 84 | |
| 20260904174522 | 68 | 269 | 16.0 | 20.0 | 0.00 | 0.12 | 0.02 | 84 | |
| 20260904173551 | 68 | 279 | 13.0 | 22.0 | 0.00 | 0.12 | 0.02 | 84 | |
| 20260904172533 | 69 | 264 | 12.0 | 21.0 | 0.00 | 0.12 | 0.02 | 83 | |
| 20260904171547 | 69 | 265 | 15.0 | 19.0 | 0.00 | 0.12 | 0.02 | 83 | |
| 20260904170531 | 69 | 280 | 11.0 | 20.0 | 0.00 | 0.12 | 0.02 | 81 | |
| 20260904165544 | 70 | 273 | 16.0 | 21.0 | 0.00 | 0.12 | 0.02 | 81 | |
| 20260904164527 | 70 | 273 | 13.0 | 19.0 | 0.00 | 0.12 | 0.02 | 81 | |
| 20260904163541 | 70 | 268 | 9.0 | 14.0 | 0.00 | 0.12 | 0.02 | 80 | |
| 20260904162525 | 70 | 295 | 13.0 | 16.0 | 0.00 | 0.12 | 0.02 | 80 | |
| 20260904161525 | 70 | 268 | 14.0 | 24.0 | 0.00 | 0.12 | 0.02 | 79 | |
| 20260904160538 | 70 | 278 | 13.0 | 21.0 | 0.00 | 0.12 | 0.02 | 80 | |
| 20260904155522 | 70 | 244 | 11.0 | 18.0 | 0.00 | 0.12 | 0.02 | 82 | |
| 20260904154534 | 70 | 267 | 10.0 | 18.0 | 0.00 | 0.12 | 0.02 | 82 | |
| 20260904153539 | 70 | 288 | 14.0 | 20.0 | 0.00 | 0.12 | 0.02 | 81 | |
| 20260904152532 | 70 | 257 | 12.0 | 21.0 | 0.00 | 0.12 | 0.02 | 80 | |
| 20260904151537 | 71 | 271 | 15.0 | 21.0 | 0.00 | 0.12 | 0.02 | 79 | |
| 20260904150529 | 70 | 274 | 15.0 | 23.0 | 0.00 | 0.12 | 0.02 | 80 | |
| 20260904145550 | 70 | 272 | 13.0 | 21.0 | 0.00 | 0.12 | 0.02 | 79 | |
| 20260904144522 | 70 | 360 | 19.0 | 24.0 | 0.00 | 0.12 | 0.02 | 80 | |
| 20260904143525 | 70 | 273 | 12.0 | 21.0 | 0.00 | 0.12 | 0.02 | 83 | |
| 20260904142519 | 69 | 282 | 13.0 | 22.0 | 0.00 | 0.12 | 0.02 | 84 | |
| 20260904141553 | 69 | 278 | 15.0 | 22.0 | 0.00 | 0.12 | 0.02 | 84 | |
| 20260904140606 | 69 | 273 | 13.0 | 19.0 | 0.00 | 0.12 | 0.02 | 86 | |
| 20260904135524 | 68 | 268 | 11.0 | 18.0 | 0.00 | 0.12 | 0.02 | 87 | |
| 20260904134528 | 69 | 290 | 16.0 | 24.0 | 0.00 | 0.12 | 0.02 | 87 | |
| 20260904133521 | 69 | 277 | 11.0 | 19.0 | 0.04 | 0.12 | 0.02 | 87 | |
| 20260904132525 | 68 | 263 | 11.0 | 24.0 | 0.12 | 0.12 | 0.02 | 87 | |
| 20260904131538 | 68 | 251 | 11.0 | 21.0 | 0.12 | 0.12 | 0.02 | 89 | |
| 20260904130543 | 67 | 259 | 18.0 | 23.0 | 0.12 | 0.12 | 0.02 | 89 | |
| 20260904125536 | 67 | 285 | 16.0 | 26.0 | 0.12 | 0.12 | 0.02 | 89 | |
| 20260904124544 | 68 | 259 | 18.0 | 30.0 | 0.12 | 0.12 | 0.02 | 88 | |
| 20260904123528 | 70 | 280 | 24.0 | 32.0 | 0.04 | 0.04 | 0.01 | 86 | |
| 20260904122601 | 71 | 267 | 13.0 | 26.0 | 0.00 | 0.00 | 0.00 | 86 | |
| 20260904121523 | 71 | 248 | 17.0 | 29.0 | 0.00 | 0.00 | 0.00 | 86 | |
| 20260904120536 | 71 | 360 | 18.0 | 25.0 | 0.00 | 0.00 | 0.00 | 85 | |
| 20260904115539 | 70 | 254 | 20.0 | 29.0 | 0.00 | 0.00 | 0.00 | 86 | |
| 20260904114532 | 70 | 246 | 20.0 | 28.0 | 0.00 | 0.00 | 0.00 | 86 | |
| 20260904113552 | 71 | 263 | 26.0 | 35.0 | 0.00 | 0.00 | 0.00 | 83 | |
| 20260904112545 | 71 | 238 | 19.0 | 35.0 | 0.00 | 0.00 | 0.00 | 84 | |
| 20260904111538 | 72 | 225 | 22.0 | 28.0 | 0.00 | 0.00 | 0.00 | 82 | |
| 20260904110522 | 73 | 262 | 19.0 | 29.0 | 0.00 | 0.00 | 0.00 | 81 | |
| 20260904105534 | 73 | 268 | 18.0 | 33.0 | 0.00 | 0.12 | 0.00 | 81 | |
| 20260904104539 | 73 | 257 | 20.0 | 32.0 | 0.00 | 0.12 | 0.00 | 82 | |
| 20260904103523 | 72 | 269 | 15.0 | 29.0 | 0.00 | 0.12 | 0.00 | 83 | |
| 20260904102537 | 72 | 253 | 23.0 | 33.0 | 0.00 | 0.12 | 0.00 | 82 | |
| 20260904101546 | 72 | 261 | 21.0 | 35.0 | 0.00 | 0.12 | 0.00 | 82 | |
| 20260904100530 | 72 | 217 | 18.0 | 30.0 | 0.00 | 0.12 | 0.00 | 84 | |
| 20260904095533 | 72 | 263 | 17.0 | 31.0 | 0.00 | 0.12 | 0.00 | 83 | |
| 20260904094527 | 72 | 240 | 22.0 | 36.0 | 0.00 | 0.12 | 0.00 | 84 | |
| 20260904093531 | 72 | 240 | 19.0 | 28.0 | 0.00 | 0.12 | 0.00 | 85 | |
| 20260904092524 | 71 | 247 | 21.0 | 28.0 | 0.00 | 0.12 | 0.00 | 86 | |
| 20260904091529 | 71 | 247 | 15.0 | 26.0 | 0.00 | 0.12 | 0.00 | 86 | |
| 20260904090541 | 70 | 254 | 22.0 | 28.0 | 0.00 | 0.12 | 0.00 | 87 | |
| 20260904085522 | 70 | 262 | 18.0 | 25.0 | 0.00 | 0.12 | 0.00 | 88 | |
| 20260904084536 | 70 | 204 | 20.0 | 27.0 | 0.00 | 0.12 | 0.00 | 88 | |
| 20260904083539 | 70 | 229 | 16.0 | 26.0 | 0.00 | 0.12 | 0.00 | 89 | |
| 20260904082523 | 69 | 251 | 17.0 | 29.0 | 0.00 | 0.12 | 0.00 | 90 | |
| 20260904081537 | 69 | 270 | 14.0 | 23.0 | 0.00 | 0.12 | 0.00 | 90 | |
| 20260904080551 | 69 | 210 | 15.0 | 23.0 | 0.00 | 0.12 | 0.00 | 90 | |
| 20260904075534 | 69 | 252 | 14.0 | 22.0 | 0.00 | 0.12 | 0.00 | 89 | |
| 20260904074527 | 69 | 257 | 15.0 | 26.0 | 0.00 | 0.12 | 0.00 | 88 | |
| 20260904073546 | 69 | 257 | 16.0 | 23.0 | 0.00 | 0.12 | 0.00 | 88 | |
| 20260904072540 | 69 | 360 | 15.0 | 21.0 | 0.00 | 0.12 | 0.00 | 88 | |
| 20260904071553 | 69 | 229 | 14.0 | 25.0 | 0.00 | 0.12 | 0.00 | 88 | |
| 20260904070535 | 69 | 254 | 14.0 | 21.0 | 0.00 | 0.12 | 0.00 | 88 | |
| 20260904065527 | 69 | 209 | 14.0 | 23.0 | 0.00 | 0.12 | 0.00 | 89 | |
| 20260904064532 | 69 | 254 | 13.0 | 27.0 | 0.00 | 0.12 | 0.00 | 88 | |
| 20260904063543 | 69 | 227 | 18.0 | 25.0 | 0.00 | 0.12 | 0.00 | 88 | |
| 20260904062524 | 69 | 218 | 17.0 | 27.0 | 0.00 | 0.12 | 0.00 | 88 | |
| 20260904061558 | 69 | 244 | 12.0 | 20.0 | 0.00 | 0.12 | 0.00 | 89 | |
| 20260904060521 | 68 | 254 | 12.0 | 20.0 | 0.00 | 0.12 | 0.00 | 89 | |
| 20260904055535 | 68 | 213 | 14.0 | 22.0 | 0.00 | 0.12 | 0.00 | 89 | |
| 20260904054539 | 68 | 215 | 12.0 | 23.0 | 0.00 | 0.12 | 0.00 | 89 | |
| 20260904053532 | 68 | 225 | 16.0 | 22.0 | 0.00 | 0.12 | 0.00 | 89 | |
| 20260904052537 | 69 | 251 | 11.0 | 23.0 | 0.00 | 0.12 | 0.00 | 89 | |
| 20260904051547 | 68 | 360 | 15.0 | 22.0 | 0.00 | 0.12 | 0.00 | 89 | |
| 20260904050559 | 68 | 206 | 14.0 | 24.0 | 0.00 | 0.12 | 0.00 | 89 | |
| 20260904045521 | 68 | 205 | 12.0 | 19.0 | 0.00 | 0.12 | 0.00 | 89 | |
| 20260904044535 | 68 | 209 | 13.0 | 21.0 | 0.00 | 0.12 | 0.00 | 89 | |
| 20260904043539 | 68 | 240 | 12.0 | 21.0 | 0.00 | 0.12 | 0.00 | 89 | |
| 20260904042532 | 68 | 225 | 16.0 | 22.0 | 0.00 | 0.12 | 0.00 | 88 | |
| 20260904041537 | 68 | 232 | 14.0 | 21.0 | 0.00 | 0.12 | 0.00 | 88 | |
| 20260904040547 | 68 | 252 | 12.0 | 20.0 | 0.00 | 0.12 | 0.00 | 88 | |
| 20260904035530 | 68 | 230 | 13.0 | 21.0 | 0.00 | 0.12 | 0.00 | 88 | |
| 20260904034545 | 68 | 360 | 12.0 | 22.0 | 0.00 | 0.12 | 0.00 | 88 | |
| 20260904033528 | 68 | 225 | 13.0 | 24.0 | 0.00 | 0.12 | 0.00 | 88 | |
| 20260904032602 | 68 | 202 | 12.0 | 18.0 | 0.00 | 0.12 | 0.00 | 88 | |
| 20260904031524 | 68 | 214 | 13.0 | 21.0 | 0.00 | 0.12 | 0.00 | 88 | |
| 20260904030538 | 68 | 203 | 15.0 | 21.0 | 0.00 | 0.12 | 0.00 | 89 | |
| 20260904025522 | 68 | 215 | 14.0 | 23.0 | 0.00 | 0.12 | 0.00 | 89 | |
| 20260904024523 | 68 | 221 | 14.0 | 23.0 | 0.00 | 0.12 | 0.00 | 89 | |
| 20260904023536 | 68 | 197 | 16.0 | 25.0 | 0.00 | 0.12 | 0.00 | 89 | |
| 20260904022521 | 67 | 231 | 15.0 | 21.0 | 0.00 | 0.12 | 0.00 | 89 | |
| 20260904021535 | 67 | 213 | 15.0 | 24.0 | 0.00 | 0.12 | 0.00 | 89 | |
| 20260904020547 | 67 | 217 | 15.0 | 21.0 | 0.00 | 0.12 | 0.00 | 89 | |
| 20260904015531 | 67 | 223 | 13.0 | 20.0 | 0.00 | 0.12 | 0.00 | 89 | |
| 20260904014537 | 67 | 229 | 12.0 | 16.0 | 0.00 | 0.12 | 0.00 | 88 | |
| 20260904013528 | 68 | 239 | 12.0 | 21.0 | 0.00 | 0.12 | 0.00 | 88 | |
| 20260904012530 | 68 | 220 | 14.0 | 22.0 | 0.00 | 0.12 | 0.00 | 88 | |
| 20260904011543 | 68 | 234 | 17.0 | 25.0 | 0.00 | 0.12 | 0.00 | 88 | |
| 20260904010527 | 68 | 244 | 11.0 | 23.0 | 0.00 | 0.12 | 0.00 | 88 | |
| 20260904005520 | 69 | 244 | 14.0 | 22.0 | 0.00 | 0.12 | 0.00 | 87 | |
| 20260904004525 | 69 | 252 | 15.0 | 27.0 | 0.00 | 0.12 | 0.00 | 87 | |
| 20260904003538 | 69 | 277 | 16.0 | 24.0 | 0.00 | 0.12 | 0.00 | 87 | |
| 20260904002523 | 69 | 269 | 14.0 | 23.0 | 0.00 | 0.12 | 0.00 | 87 | |
| 20260904001532 | 69 | 238 | 14.0 | 22.0 | 0.00 | 0.12 | 0.00 | 87 | |
| 20260904000537 | 69 | 228 | 17.0 | 24.0 | 0.00 | 0.12 | 0.00 | 88 | |
| 20260903235550 | 69 | 244 | 12.0 | 21.0 | 0.00 | 0.12 | 0.00 | 88 | |
| 20260903234542 | 69 | 239 | 14.0 | 23.0 | 0.00 | 0.12 | 0.00 | 88 | |
| 20260903233526 | 69 | 269 | 13.0 | 20.0 | 0.00 | 0.12 | 0.00 | 89 | |
| 20260903232559 | 69 | 255 | 13.0 | 19.0 | 0.00 | 0.12 | 0.00 | 89 | |
| 20260903231522 | 69 | 250 | 11.0 | 20.0 | 0.00 | 0.12 | 0.00 | 89 | |
| 20260903230531 | 69 | 216 | 13.0 | 22.0 | 0.00 | 0.12 | 0.00 | 89 | |
| 20260903225536 | 69 | 227 | 12.0 | 19.0 | 0.00 | 0.12 | 0.00 | 88 |